Simultaneous Nadir Overpasses (SNOs) Predictions

Prediction of SNOs between LANDSAT-8 and METOP-A Satellite Orbit:

Table of predicted SNOs for the next 14.0 days since TLE Epoch: 3/29/2014
Index Date (LANDSAT-8) Time (LANDSAT-8) Lat,Lon (LANDSAT-8) SZA (LANDSAT-8 ) Date (METOP-A) Time (METOP-A) Lat,Lon (METOP-A) SZA (METOP-A ) Distance(km) Time Diff (sec)
1 03/30/2014 09:53:49 -81.11,-109.34 100.83 03/30/2014 09:53:04 -81.11,-109.28 100.84 1.08 45
2 03/30/2014 10:43:14 81.13, 58.60 79.20 03/30/2014 10:43:43 81.13, 58.56 79.21 0.86 29
3 04/02/2014 05:28:04 -81.12, -42.69 101.86 04/02/2014 05:27:28 -81.13, -42.56 101.86 2.27 36
4 04/02/2014 06:17:29 81.14, 125.24 78.17 04/02/2014 06:18:07 81.14, 125.26 78.19 0.31 38
5 04/05/2014 01:02:22 -81.12, 23.72 102.92 04/05/2014 01:01:53 -81.12, 23.71 102.93 0.36 29
6
